This demonstration page uses our WeatherBlox Daily Observations layout. Learn more.

Hourly Observations for September 2, 2019

Temp ( °F °C ) Dew Point ( °F °C ) Humidity (%) Winds ( mph kmh ) Pressure ( in mb ) Visibility ( mi km ) Precip ( " mm )
12:15 am 00:15 Clear 69 20.6 69 20.5 99 99 SE 6 9 29.98 1015 10 16.0934 0 0
12:35 am 00:35 Clear 68 20.2 68 20.1 99 99 SE 7 11 29.99 1015 10 16.0934 0 0
12:55 am 00:55 Clear 69 20.4 69 20.3 99 99 SSE 7 11 29.98 1015 10 16.0934 0 0
1:15 am 01:15 Clear 69 20.3 68 20.2 99 99 SSE 5 7 29.98 1015 10 16.0934 0 0
1:35 am 01:35 Clear 68 20.1 68 20.1 100 100 SSE 6 9 29.99 1015 10 16.0934 0 0
1:55 am 01:55 Clear 69 20.5 69 20.5 100 100 SSE 7 11 29.98 1015 10 16.0934 0 0
2:15 am 02:15 Clear 69 20.6 69 20.6 100 100 SSE 7 11 29.98 1015 10 16.0934 0 0
2:35 am 02:35 Clear 69 20.6 69 20.5 99 99 SSE 7 11 29.98 1015 7 11.26538 0 0
2:55 am 02:55 Clear 69 20.5 69 20.5 100 100 SSE 8 13 29.98 1015 7 11.26538 0 0
3:15 am 03:15 Clear 69 20.5 69 20.5 100 100 SSE 8 13 29.98 1015 7 11.26538 0 0
3:35 am 03:35 Clear 69 20.5 69 20.5 100 100 SSE 8 13 29.98 1015 7 11.26538 0 0
3:55 am 03:55 Clear 69 20.5 69 20.5 100 100 SSE 8 13 29.97 1015 7 11.26538 0 0
4:15 am 04:15 Clear 69 20.6 69 20.6 100 100 SSE 8 13 29.97 1015 7 11.26538 0 0
4:35 am 04:35 Clear 69 20.7 69 20.6 99 99 SSE 9 15 29.97 1015 10 16.0934 0 0
4:55 am 04:55 Clear 69 20.8 69 20.6 99 99 SSE 10 17 29.97 1015 10 16.0934 0 0
5:15 am 05:15 Clear 69 20.6 69 20.5 99 99 SSE 9 15 29.96 1015 7 11.26538 0 0
5:35 am 05:35 Partly Cloudy 69 20.5 69 20.5 100 100 S 9 15 29.95 1014 7 11.26538 0 0
5:55 am 05:55 Clear 69 20.7 69 20.6 99 99 SSE 9 15 29.95 1014 7 11.26538 0 0
6:15 am 06:15 Clear 69 20.7 69 20.6 99 99 SSE 12 19 29.95 1014 7 11.26538 0 0
6:35 am 06:35 Partly Cloudy 69 20.6 69 20.5 99 99 SSE 10 17 29.94 1014 7 11.26538 0 0
6:55 am 06:55 Partly Cloudy 69 20.6 69 20.5 99 99 S 13 20 29.94 1014 7 11.26538 0 0
7:15 am 07:15 Partly Cloudy 69 20.6 69 20.5 99 99 S 14 22 29.93 1014 7 11.26538 0 0
7:35 am 07:35 Partly Cloudy 69 20.6 69 20.5 99 99 S 12 19 29.94 1014 7 11.26538 0 0
7:55 am 07:55 Partly Cloudy 69 20.8 69 20.6 99 99 S 14 22 29.93 1014 7 11.26538 0 0
8:15 am 08:15 Partly Cloudy 70 21 69 20.7 98 98 S 12 19 29.94 1014 7 11.26538 0 0
8:35 am 08:35 Mostly Cloudy 71 21.5 70 21 97 97 S 13 20 29.93 1014 10 16.0934 0 0
8:55 am 08:55 Cloudy 71 21.9 70 21.2 96 96 S 9 15 29.94 1014 10 16.0934 0 0
9:15 am 09:15 Cloudy 72 22.1 71 21.4 96 96 S 8 13 29.94 1014 10 16.0934 0 0
9:35 am 09:35 Cloudy 73 23 71 21.6 92 92 S 12 19 29.93 1014 10 16.0934 0 0
9:55 am 09:55 Mostly Cloudy 75 23.8 71 21.8 89 89 S 10 17 29.92 1013 10 16.0934 0 0
10:15 am 10:15 Mostly Cloudy 76 24.4 71 21.5 84 84 S 10 17 29.91 1013 10 16.0934 0 0
10:35 am 10:35 Partly Cloudy 77 25 71 21.6 81 81 S 12 19 29.91 1013 10 16.0934 0 0
10:55 am 10:55 Partly Cloudy 78 25.6 71 21.9 80 80 S 10 17 29.89 1012 10 16.0934 0 0
11:15 am 11:15 Partly Cloudy 79 26.3 72 22.1 78 78 S 13 20 29.88 1012 10 16.0934 0 0
11:35 am 11:35 Partly Cloudy 81 27 72 22.1 75 75 S 16 26 29.87 1012 10 16.0934 0 0
11:55 am 11:55 Sunny 82 27.6 72 22.2 72 72 S 16 26 29.86 1011 10 16.0934 0 0
12:15 pm 12:15 Sunny 83 28.3 72 22.2 70 70 S 16 26 29.85 1011 10 16.0934 0 0
12:35 pm 12:35 Sunny 84 28.8 72 22.2 68 68 S 14 22 29.84 1010 10 16.0934 0 0
12:55 pm 12:55 Sunny 85 29.5 72 22.1 64 64 S 15 24 29.82 1010 10 16.0934 0 0
1:15 pm 13:15 Sunny 86 30.1 72 22.2 63 63 S 16 26 29.82 1010 10 16.0934 0 0
1:35 pm 13:35 Sunny 87 30.6 72 22.4 62 62 S 15 24 29.8 1009 10 16.0934 0 0
1:55 pm 13:55 Sunny 88 31.2 73 22.9 61 61 S 17 28 29.8 1009 10 16.0934 0 0
2:15 pm 14:15 Sunny 89 31.4 73 22.7 60 60 S 16 26 29.79 1009 10 16.0934 0 0
2:35 pm 14:35 Sunny 89 31.7 72 22.4 58 58 S 18 30 29.76 1008 10 16.0934 0 0
2:55 pm 14:55 Sunny 90 32.3 72 22.4 56 56 S 20 31 29.76 1008 10 16.0934 0 0
3:15 pm 15:15 Sunny 91 32.6 72 22.4 55 55 S 17 28 29.75 1007 10 16.0934 0 0
3:35 pm 15:35 Sunny 92 33.1 72 22 52 52 S 20 31 29.74 1007 10 16.0934 0 0
3:55 pm 15:55 Sunny 92 33.2 72 22.2 52 52 S 17 28 29.73 1007 10 16.0934 0 0
4:15 pm 16:15 Sunny 93 33.7 72 22.3 51 51 S 15 24 29.73 1007 10 16.0934 0 0
4:30 pm 16:30 Sunny 93 33.8 71 21.4 48 48 S 20 31 29.73 1007 10 16.0934 0 0
4:55 pm 16:55 Sunny 92 33.6 71 21.6 49 49 S 16 26 29.71 1006 10 16.0934 0 0
5:15 pm 17:15 Sunny 92 33.5 72 22.2 52 52 S 18 30 29.7 1006 10 16.0934 0 0
5:35 pm 17:35 Sunny 92 33.2 72 22.1 52 52 S 15 24 29.7 1006 10 16.0934 0 0
5:55 pm 17:55 Sunny 92 33.1 72 22.2 53 53 S 15 24 29.69 1006 10 16.0934 0 0
6:15 pm 18:15 Sunny 90 32.2 72 22.2 56 56 S 15 24 29.69 1005 10 16.0934 0 0
6:35 pm 18:35 Sunny 89 31.6 73 22.5 59 59 S 12 19 29.71 1006 10 16.0934 0 0
6:55 pm 18:55 Sunny 90 32 73 22.5 57 57 S 12 19 29.69 1006 10 16.0934 0 0
7:15 pm 19:15 Sunny 88 30.9 73 22.5 61 61 S 8 13 29.69 1005 10 16.0934 0 0
7:35 pm 19:35 Sunny 86 29.8 72 22.3 64 64 S 10 17 29.7 1006 10 16.0934 0 0
7:55 pm 19:55 Sunny 83 28.5 72 22.2 69 69 S 9 15 29.71 1006 10 16.0934 0 0
8:15 pm 20:15 undefined N/A N/A N/A S 9 15 N/A N/A 0 0
8:35 pm 20:35 Clear 82 27.8 70 21.1 67 67 S 12 19 29.73 1007 10 16.0934 0 0
8:55 pm 20:55 Clear 81 27.3 70 21 69 69 S 12 19 29.73 1007 10 16.0934 0 0
9:15 pm 21:15 Clear 81 27 70 21 70 70 S 14 22 29.74 1007 10 16.0934 0 0
9:35 pm 21:35 Clear 80 26.7 69 20.7 70 70 S 12 19 29.74 1007 10 16.0934 0 0
9:55 pm 21:55 Clear 79 26.1 69 20.5 71 71 S 13 20 29.76 1008 10 16.0934 0 0
10:15 pm 22:15 Clear 79 26 68 20.2 70 70 S 12 19 29.76 1008 10 16.0934 0 0
10:35 pm 22:35 Clear 78 25.5 68 20 72 72 S 13 20 29.76 1008 10 16.0934 0 0
10:55 pm 22:55 Clear 77 25.2 68 20 73 73 S 13 20 29.78 1008 10 16.0934 0 0
11:15 pm 23:15 Clear 77 25 68 19.8 73 73 SSW 9 15 29.78 1008 10 16.0934 0 0
11:35 pm 23:35 Clear 76 24.5 67 19.7 75 75 S 10 17 29.78 1008 10 16.0934 0 0
11:55 pm 23:55 Clear 75 24.1 68 19.8 77 77 SSW 10 17 29.78 1009 10 16.0934 0 0

Powered by AerisWeather